Time,TemperatureF,DewpointF,PressureIn,WindDirection,WindDirectionDegrees,WindSpeedMPH,WindSpeedGustMPH,Humidity,HourlyPrecipIn,Conditions,Clouds,dailyrainin,SoftwareType,DateUTC
2013-02-14 00:02:00,38.0,38.0,30.10,NW,309,0.0,0.0,99,0.00,,,0.07,,2013-02-14 06:02:00,
2013-02-14 00:11:00,37.0,37.0,30.09,NW,309,0.0,0.0,99,0.00,,,0.07,,2013-02-14 06:11:00,
2013-02-14 00:21:00,37.0,37.0,30.09,NW,309,0.0,0.0,99,0.00,,,0.07,,2013-02-14 06:21:00,
2013-02-14 00:31:00,37.0,37.0,30.09,NW,309,0.0,0.0,99,0.00,,,0.07,,2013-02-14 06:31:00,
2013-02-14 00:42:00,37.0,37.0,30.09,NW,309,0.0,0.0,99,0.00,,,0.07,,2013-02-14 06:42:00,
2013-02-14 00:52:00,37.0,37.0,30.09,NW,309,0.0,0.0,99,0.00,,,0.07,,2013-02-14 06:52:00,
2013-02-14 01:01:00,37.0,37.0,30.09,NW,309,0.0,0.0,99,0.00,,,0.07,,2013-02-14 07:01:00,
2013-02-14 01:11:00,37.0,37.0,30.09,NW,309,0.0,0.0,99,0.00,,,0.07,,2013-02-14 07:11:00,
2013-02-14 01:21:00,37.0,37.0,30.09,NW,309,0.0,0.0,99,0.00,,,0.07,,2013-02-14 07:21:00,
2013-02-14 01:32:00,36.0,36.0,30.10,NW,309,0.0,0.0,99,0.00,,,0.07,,2013-02-14 07:32:00,
2013-02-14 01:41:00,36.0,36.0,30.10,NW,309,0.0,0.0,99,0.00,,,0.07,,2013-02-14 07:41:00,
2013-02-14 01:51:00,36.0,36.0,30.10,NW,309,0.0,0.0,99,0.00,,,0.07,,2013-02-14 07:51:00,
2013-02-14 02:01:00,36.0,36.0,30.11,NW,309,0.0,0.0,100,0.00,,,0.07,,2013-02-14 08:01:00,
2013-02-14 02:11:00,36.0,36.0,30.11,NW,309,0.0,0.0,100,0.00,,,0.07,,2013-02-14 08:11:00,
2013-02-14 02:21:00,35.0,35.0,30.10,NW,309,0.0,1.0,99,0.00,,,0.07,,2013-02-14 08:21:00,
2013-02-14 02:32:00,35.0,35.0,30.11,NW,309,0.0,0.0,99,0.00,,,0.07,,2013-02-14 08:32:00,
2013-02-14 02:43:00,35.0,35.0,30.11,NW,309,0.0,0.0,99,0.00,,,0.07,,2013-02-14 08:43:00,
2013-02-14 02:52:00,35.0,35.0,30.11,NW,309,0.0,0.0,99,0.00,,,0.07,,2013-02-14 08:52:00,
2013-02-14 03:02:00,35.0,35.0,30.11,NW,309,0.0,0.0,100,0.00,,,0.07,,2013-02-14 09:02:00,
2013-02-14 03:11:00,35.0,35.0,30.11,NW,309,0.0,0.0,100,0.00,,,0.07,,2013-02-14 09:11:00,
2013-02-14 03:21:00,35.0,35.0,30.11,NW,322,0.0,0.0,100,0.00,,,0.07,,2013-02-14 09:21:00,
2013-02-14 03:31:00,35.0,35.0,30.11,NW,322,0.0,0.0,100,0.00,,,0.07,,2013-02-14 09:31:00,
2013-02-14 03:42:00,35.0,35.0,30.11,NW,322,0.0,0.0,100,0.00,,,0.07,,2013-02-14 09:42:00,
2013-02-14 03:51:00,34.0,34.0,30.12,NW,322,0.0,0.0,100,0.00,,,0.07,,2013-02-14 09:51:00,
2013-02-14 04:02:00,34.0,34.0,30.12,NW,322,0.0,0.0,100,0.00,,,0.07,,2013-02-14 10:02:00,
2013-02-14 04:11:00,34.0,34.0,30.12,NW,322,0.0,0.0,100,0.00,,,0.07,,2013-02-14 10:11:00,
2013-02-14 04:21:00,34.0,34.0,30.12,NW,322,0.0,0.0,100,0.00,,,0.07,,2013-02-14 10:21:00,
2013-02-14 04:31:00,35.0,35.0,30.12,NW,322,0.0,0.0,100,0.00,,,0.07,,2013-02-14 10:31:00,
2013-02-14 04:42:00,35.0,35.0,30.12,NW,322,0.0,0.0,100,0.00,,,0.07,,2013-02-14 10:42:00,
2013-02-14 04:52:00,34.0,34.0,30.12,NW,322,0.0,0.0,100,0.00,,,0.07,,2013-02-14 10:52:00,
2013-02-14 05:02:00,34.0,34.0,30.12,NNW,342,0.0,0.0,100,0.00,,,0.07,,2013-02-14 11:02:00,
2013-02-14 05:11:00,34.0,34.0,30.12,NNW,342,0.0,0.0,100,0.00,,,0.07,,2013-02-14 11:11:00,
2013-02-14 05:21:00,34.0,34.0,30.12,NNW,343,0.0,0.0,100,0.00,,,0.07,,2013-02-14 11:21:00,
2013-02-14 05:32:00,33.0,33.0,30.11,North,9,0.0,1.0,100,0.00,,,0.07,,2013-02-14 11:32:00,
2013-02-14 05:42:00,33.0,33.0,30.11,North,9,0.0,1.0,100,0.00,,,0.07,,2013-02-14 11:42:00,
2013-02-14 05:52:00,34.0,34.0,30.13,North,9,0.0,0.0,100,0.00,,,0.07,,2013-02-14 11:52:00,
2013-02-14 06:02:00,33.0,33.0,30.14,North,9,0.0,0.0,100,0.00,,,0.07,,2013-02-14 12:02:00,
2013-02-14 06:12:00,33.0,33.0,30.14,North,9,0.0,0.0,100,0.00,,,0.07,,2013-02-14 12:12:00,
2013-02-14 06:22:00,33.0,33.0,30.14,North,9,0.0,0.0,100,0.00,,,0.07,,2013-02-14 12:22:00,
2013-02-14 06:32:00,33.0,33.0,30.16,NW,316,0.0,3.0,100,0.00,,,0.07,,2013-02-14 12:32:00,
2013-02-14 06:42:00,33.0,33.0,30.16,NW,316,0.0,3.0,100,0.00,,,0.07,,2013-02-14 12:42:00,
2013-02-14 06:53:00,33.0,33.0,30.15,WNW,302,0.0,0.0,100,0.00,,,0.07,,2013-02-14 12:53:00,
2013-02-14 07:01:00,33.0,33.0,30.15,WNW,302,0.0,0.0,100,0.00,,,0.07,,2013-02-14 13:01:00,
2013-02-14 07:11:00,33.0,33.0,30.15,WNW,302,0.0,0.0,100,0.00,,,0.07,,2013-02-14 13:11:00,
2013-02-14 07:21:00,33.0,33.0,30.16,WNW,302,0.0,0.0,100,0.00,,,0.07,,2013-02-14 13:21:00,
2013-02-14 07:31:00,33.0,33.0,30.16,NE,37,0.0,1.0,100,0.00,,,0.07,,2013-02-14 13:31:00,
2013-02-14 07:42:00,33.0,33.0,30.16,NE,37,0.0,1.0,100,0.00,,,0.07,,2013-02-14 13:42:00,
2013-02-14 07:51:00,34.0,34.0,30.17,NE,37,0.0,0.0,100,0.00,,,0.07,,2013-02-14 13:51:00,
2013-02-14 08:01:00,36.0,36.0,30.18,NE,37,0.0,0.0,100,0.01,,,0.08,,2013-02-14 14:01:00,
2013-02-14 08:11:00,36.0,36.0,30.18,NE,37,0.0,0.0,100,0.01,,,0.08,,2013-02-14 14:11:00,
2013-02-14 08:21:00,37.0,37.0,30.18,ESE,103,0.0,1.0,100,0.01,,,0.08,,2013-02-14 14:21:00,
2013-02-14 08:31:00,39.0,39.0,30.18,East,100,0.0,0.0,100,0.01,,,0.07,,2013-02-14 14:31:00,
2013-02-14 08:41:00,39.0,39.0,30.18,East,100,0.0,0.0,100,0.01,,,0.07,,2013-02-14 14:41:00,
2013-02-14 08:52:00,41.0,41.0,30.19,NE,50,0.0,1.0,100,0.00,,,0.07,,2013-02-14 14:52:00,
2013-02-14 09:01:00,42.0,41.0,30.19,ENE,65,0.0,2.0,95,0.00,,,0.07,,2013-02-14 15:01:00,
2013-02-14 09:21:00,45.0,42.0,30.19,ESE,104,0.0,1.0,88,0.00,,,0.07,,2013-02-14 15:21:00,
2013-02-14 09:32:00,46.0,42.0,30.19,ESE,108,0.0,2.0,86,0.00,,,0.01,,2013-02-14 15:32:00,
2013-02-14 09:41:00,46.0,42.0,30.19,ESE,108,0.0,2.0,86,0.00,,,0.01,,2013-02-14 15:41:00,
2013-02-14 09:52:00,47.0,42.0,30.18,ESE,104,1.0,3.0,82,0.00,,,0.01,,2013-02-14 15:52:00,
2013-02-14 10:01:00,48.0,41.0,30.18,East,80,0.0,3.0,78,0.00,,,0.01,,2013-02-14 16:01:00,
2013-02-14 10:11:00,48.0,41.0,30.18,East,80,0.0,3.0,78,0.00,,,0.01,,2013-02-14 16:11:00,
2013-02-14 10:21:00,49.0,42.0,30.18,ESE,117,0.0,3.0,76,0.00,,,0.01,,2013-02-14 16:21:00,
2013-02-14 10:32:00,49.0,42.0,30.18,ESE,117,0.0,3.0,76,0.00,,,0.01,,2013-02-14 16:32:00,
2013-02-14 10:41:00,49.0,42.0,30.18,ESE,117,0.0,3.0,76,0.00,,,0.01,,2013-02-14 16:41:00,
2013-02-14 10:52:00,50.0,42.0,30.19,SSE,156,1.0,6.0,73,0.00,,,0.01,,2013-02-14 16:52:00,
2013-02-14 11:01:00,51.0,42.0,30.19,SE,124,1.0,3.0,71,0.00,,,0.01,,2013-02-14 17:01:00,
2013-02-14 11:11:00,51.0,42.0,30.19,SE,124,1.0,3.0,71,0.00,,,0.01,,2013-02-14 17:11:00,
2013-02-14 11:21:00,51.0,42.0,30.19,NE,45,0.0,2.0,72,0.00,,,0.01,,2013-02-14 17:21:00,
2013-02-14 11:32:00,52.0,42.0,30.18,ESE,110,1.0,4.0,68,0.00,,,0.01,,2013-02-14 17:32:00,
2013-02-14 11:42:00,52.0,42.0,30.18,ESE,110,1.0,4.0,68,0.00,,,0.01,,2013-02-14 17:42:00,
2013-02-14 11:52:00,53.0,42.0,30.18,WNW,295,1.0,4.0,66,0.00,,,0.01,,2013-02-14 17:52:00,
2013-02-14 12:01:00,53.0,41.0,30.17,NNE,30,0.0,4.0,63,0.00,,,0.01,,2013-02-14 18:01:00,
2013-02-14 12:11:00,53.0,41.0,30.17,NNE,30,0.0,4.0,63,0.00,,,0.01,,2013-02-14 18:11:00,
2013-02-14 12:23:00,54.0,41.0,30.16,WSW,245,0.0,2.0,62,0.00,,,0.01,,2013-02-14 18:23:00,
2013-02-14 12:32:00,55.0,41.0,30.16,ESE,110,0.0,3.0,58,0.00,,,0.01,,2013-02-14 18:32:00,
2013-02-14 12:42:00,55.0,41.0,30.16,ESE,110,0.0,3.0,58,0.00,,,0.01,,2013-02-14 18:42:00,
2013-02-14 12:51:00,55.0,41.0,30.15,North,360,0.0,4.0,59,0.00,,,0.01,,2013-02-14 18:51:00,
2013-02-14 13:02:00,57.0,42.0,30.14,NW,326,0.0,4.0,57,0.00,,,0.01,,2013-02-14 19:02:00,
2013-02-14 13:11:00,57.0,42.0,30.14,NW,326,0.0,4.0,57,0.00,,,0.01,,2013-02-14 19:11:00,
2013-02-14 13:21:00,57.0,40.0,30.13,NNW,330,0.0,5.0,53,0.00,,,0.01,,2013-02-14 19:21:00,
2013-02-14 13:31:00,57.0,40.0,30.13,NNW,330,0.0,5.0,53,0.00,,,0.01,,2013-02-14 19:31:00,
2013-02-14 13:41:00,57.0,40.0,30.13,NNW,330,0.0,5.0,53,0.00,,,0.01,,2013-02-14 19:41:00,
2013-02-14 13:52:00,57.0,40.0,30.13,NNW,330,0.0,5.0,53,0.00,,,0.01,,2013-02-14 19:52:00,
2013-02-14 14:01:00,59.0,41.0,30.11,East,89,1.0,3.0,52,0.00,,,0.01,,2013-02-14 20:01:00,
2013-02-14 14:11:00,59.0,41.0,30.11,East,89,1.0,3.0,52,0.00,,,0.01,,2013-02-14 20:11:00,
2013-02-14 14:21:00,58.0,39.0,30.10,East,101,0.0,4.0,49,0.00,,,0.01,,2013-02-14 20:21:00,
2013-02-14 14:32:00,58.0,37.0,30.10,NW,318,1.0,4.0,46,0.00,,,0.01,,2013-02-14 20:32:00,
2013-02-14 14:42:00,58.0,37.0,30.10,NW,318,1.0,4.0,46,0.00,,,0.01,,2013-02-14 20:42:00,
2013-02-14 14:52:00,59.0,39.0,30.09,NNW,345,2.0,4.0,47,0.00,,,0.01,,2013-02-14 20:52:00,
2013-02-14 15:02:00,59.0,39.0,30.09,WNW,294,1.0,4.0,47,0.00,,,0.01,,2013-02-14 21:02:00,
2013-02-14 15:11:00,59.0,39.0,30.09,WNW,294,1.0,4.0,47,0.00,,,0.01,,2013-02-14 21:11:00,
2013-02-14 15:21:00,60.0,40.0,30.09,SW,235,0.0,4.0,47,0.00,,,0.01,,2013-02-14 21:21:00,
2013-02-14 15:31:00,60.0,40.0,30.09,WNW,291,1.0,5.0,48,0.00,,,0.01,,2013-02-14 21:31:00,
2013-02-14 15:42:00,60.0,40.0,30.09,WNW,291,1.0,5.0,48,0.00,,,0.01,,2013-02-14 21:42:00,
2013-02-14 15:51:00,60.0,41.0,30.09,NW,325,0.0,2.0,49,0.00,,,0.01,,2013-02-14 21:51:00,
2013-02-14 16:02:00,60.0,40.0,30.09,WSW,243,1.0,2.0,48,0.00,,,0.01,,2013-02-14 22:02:00,
2013-02-14 16:11:00,60.0,40.0,30.09,WSW,243,1.0,2.0,48,0.00,,,0.01,,2013-02-14 22:11:00,
2013-02-14 16:21:00,60.0,40.0,30.09,NW,322,0.0,3.0,47,0.00,,,0.01,,2013-02-14 22:21:00,
2013-02-14 16:31:00,60.0,40.0,30.09,NW,322,0.0,3.0,47,0.00,,,0.01,,2013-02-14 22:31:00,
2013-02-14 16:42:00,60.0,40.0,30.09,NW,322,0.0,3.0,47,0.00,,,0.01,,2013-02-14 22:42:00,
2013-02-14 16:52:00,59.0,39.0,30.09,North,358,0.0,3.0,47,0.00,,,0.01,,2013-02-14 22:52:00,
2013-02-14 17:01:00,59.0,39.0,30.09,WNW,289,0.0,2.0,47,0.00,,,0.01,,2013-02-14 23:01:00,
2013-02-14 17:11:00,59.0,39.0,30.09,WNW,289,0.0,2.0,47,0.00,,,0.01,,2013-02-14 23:11:00,
2013-02-14 17:21:00,58.0,38.0,30.09,North,9,0.0,1.0,47,0.00,,,0.01,,2013-02-14 23:21:00,
2013-02-14 17:32:00,58.0,37.0,30.09,North,9,0.0,1.0,46,0.00,,,0.01,,2013-02-14 23:32:00,
2013-02-14 17:41:00,58.0,37.0,30.09,North,9,0.0,1.0,46,0.00,,,0.01,,2013-02-14 23:41:00,
2013-02-14 17:52:00,56.0,39.0,30.09,North,9,0.0,0.0,52,0.00,,,0.01,,2013-02-14 23:52:00,
2013-02-14 18:01:00,55.0,41.0,30.09,North,9,0.0,0.0,59,0.00,,,0.01,,2013-02-15 00:01:00,
2013-02-14 18:11:00,55.0,41.0,30.09,North,9,0.0,0.0,59,0.00,,,0.01,,2013-02-15 00:11:00,
2013-02-14 18:22:00,53.0,39.0,30.09,North,9,0.0,0.0,60,0.00,,,0.01,,2013-02-15 00:22:00,
2013-02-14 18:32:00,52.0,40.0,30.10,West,277,0.0,0.0,63,0.00,,,0.01,,2013-02-15 00:32:00,
2013-02-14 18:42:00,52.0,40.0,30.10,West,277,0.0,0.0,63,0.00,,,0.01,,2013-02-15 00:42:00,
2013-02-14 18:51:00,51.0,43.0,30.10,West,277,0.0,0.0,74,0.00,,,0.01,,2013-02-15 00:51:00,
2013-02-14 19:02:00,49.0,41.0,30.10,West,277,0.0,0.0,74,0.00,,,0.01,,2013-02-15 01:02:00,
2013-02-14 19:11:00,49.0,41.0,30.10,West,277,0.0,0.0,74,0.00,,,0.01,,2013-02-15 01:11:00,
2013-02-14 19:21:00,48.0,42.0,30.10,NNW,345,0.0,0.0,81,0.00,,,0.01,,2013-02-15 01:21:00,
2013-02-14 19:31:00,47.0,41.0,30.11,NNW,346,0.0,0.0,79,0.00,,,0.01,,2013-02-15 01:31:00,
2013-02-14 19:41:00,47.0,41.0,30.11,NNW,346,0.0,0.0,79,0.00,,,0.01,,2013-02-15 01:41:00,
2013-02-14 19:51:00,47.0,41.0,30.11,NNW,346,0.0,0.0,81,0.00,,,0.01,,2013-02-15 01:51:00,
2013-02-14 20:01:00,46.0,42.0,30.11,NNW,345,0.0,0.0,86,0.00,,,0.01,,2013-02-15 02:01:00,
2013-02-14 20:11:00,46.0,42.0,30.11,NNW,345,0.0,0.0,86,0.00,,,0.01,,2013-02-15 02:11:00,
2013-02-14 20:21:00,45.0,43.0,30.11,NNW,345,0.0,0.0,91,0.00,,,0.01,,2013-02-15 02:21:00,
2013-02-14 20:31:00,44.0,41.0,30.12,NNW,345,0.0,0.0,90,0.00,,,0.01,,2013-02-15 02:31:00,
2013-02-14 20:41:00,44.0,41.0,30.12,NNW,345,0.0,0.0,90,0.00,,,0.01,,2013-02-15 02:41:00,
2013-02-14 20:52:00,44.0,41.0,30.12,NNW,345,0.0,0.0,90,0.00,,,0.01,,2013-02-15 02:52:00,
2013-02-14 21:02:00,44.0,41.0,30.12,NNW,345,0.0,0.0,90,0.00,,,0.01,,2013-02-15 03:02:00,
2013-02-14 21:11:00,44.0,41.0,30.12,NNW,345,0.0,0.0,90,0.00,,,0.01,,2013-02-15 03:11:00,
2013-02-14 21:22:00,43.0,40.0,30.13,NNW,345,0.0,0.0,89,0.00,,,0.01,,2013-02-15 03:22:00,
2013-02-14 21:32:00,43.0,41.0,30.14,NNW,345,0.0,0.0,91,0.00,,,0.01,,2013-02-15 03:32:00,
2013-02-14 21:42:00,43.0,41.0,30.14,NNW,345,0.0,0.0,91,0.00,,,0.01,,2013-02-15 03:42:00,
2013-02-14 21:51:00,43.0,41.0,30.14,NNW,345,0.0,1.0,91,0.00,,,0.01,,2013-02-15 03:51:00,
2013-02-14 22:01:00,43.0,40.0,30.13,NNW,345,0.0,0.0,88,0.00,,,0.01,,2013-02-15 04:01:00,
2013-02-14 22:11:00,43.0,40.0,30.13,NNW,345,0.0,0.0,88,0.00,,,0.01,,2013-02-15 04:11:00,
2013-02-14 22:21:00,42.0,40.0,30.13,NNW,345,0.0,0.0,91,0.00,,,0.01,,2013-02-15 04:21:00,
2013-02-14 22:32:00,42.0,40.0,30.14,NNW,345,0.0,0.0,91,0.00,,,0.01,,2013-02-15 04:32:00,
2013-02-14 22:42:00,42.0,40.0,30.14,NNW,345,0.0,0.0,91,0.00,,,0.01,,2013-02-15 04:42:00,
2013-02-14 22:52:00,42.0,39.0,30.14,NNW,345,0.0,0.0,90,0.00,,,0.01,,2013-02-15 04:52:00,
2013-02-14 23:02:00,42.0,40.0,30.15,NNW,345,0.0,0.0,91,0.00,,,0.01,,2013-02-15 05:02:00,
2013-02-14 23:12:00,42.0,40.0,30.15,NNW,345,0.0,0.0,91,0.00,,,0.01,,2013-02-15 05:12:00,
2013-02-14 23:22:00,41.0,39.0,30.15,NNW,345,0.0,0.0,93,0.00,,,0.01,,2013-02-15 05:22:00,
2013-02-14 23:32:00,41.0,39.0,30.14,NNW,345,0.0,0.0,91,0.00,,,0.01,,2013-02-15 05:32:00,
2013-02-14 23:41:00,41.0,39.0,30.14,NNW,345,0.0,0.0,91,0.00,,,0.01,,2013-02-15 05:41:00,
2013-02-14 23:52:00,41.0,39.0,30.13,NNW,345,0.0,0.0,92,0.00,,,0.01,,2013-02-15 05:52:00,